SAS1228 EKYT-EKCH

Flight info

Callsign SAS1228
Flight time 0h 28m
Altitude 17000
Route AAL M725 ADSEN DCT TNO
Aircraft A320/M-SDE3FGHIRWY/LB1

Departure

Time 2026-04-25 21:27
Airport Aalborg Airport (EKYT)

Arrival

Time 2026-04-25 21:55
Airport Copenhagen Kastrup Airport (EKCH)
Time Latitude Longitude Altitude Speed Heading
2026-04-25 21:04 57.08583 9.87137 19 ft 0 kts 55°
2026-04-25 21:17 57.08575 9.87115 21 ft 4 kts 42°
2026-04-25 21:17 57.08553 9.87095 21 ft 4 kts 355°
2026-04-25 21:17 57.08530 9.87111 20 ft 3 kts 317°
2026-04-25 21:17 57.08527 9.87116 20 ft 0 kts 315°
2026-04-25 21:20 57.08528 9.87114 20 ft 1 kts 315°
2026-04-25 21:20 57.08555 9.87064 20 ft 7 kts 315°
2026-04-25 21:20 57.08598 9.86985 19 ft 11 kts 315°
2026-04-25 21:21 57.08662 9.86870 19 ft 15 kts 317°
2026-04-25 21:21 57.08749 9.86732 19 ft 18 kts 322°
2026-04-25 21:21 57.08858 9.86574 19 ft 22 kts 321°
2026-04-25 21:21 57.08984 9.86390 19 ft 25 kts 321°
2026-04-25 21:22 57.09111 9.86213 19 ft 22 kts 323°
2026-04-25 21:22 57.09221 9.86060 19 ft 16 kts 322°
2026-04-25 21:22 57.09320 9.85937 19 ft 16 kts 353°
2026-04-25 21:22 57.09358 9.86057 19 ft 13 kts 89°
2026-04-25 21:23 57.09368 9.86251 19 ft 17 kts 83°
2026-04-25 21:23 57.09382 9.86493 19 ft 21 kts 83°
2026-04-25 21:23 57.09401 9.86781 21 ft 24 kts 83°
2026-04-25 21:23 57.09422 9.87110 19 ft 27 kts 83°
2026-04-25 21:24 57.09440 9.87378 19 ft 21 kts 83°
2026-04-25 21:24 57.09454 9.87612 19 ft 14 kts 83°
2026-04-25 21:24 57.09523 9.87737 19 ft 15 kts 11°
2026-04-25 21:24 57.09554 9.87739 19 ft 0 kts 355°
2026-04-25 21:25 57.09560 9.87739 19 ft 3 kts 355°
2026-04-25 21:25 57.09592 9.87726 21 ft 7 kts 333°
2026-04-25 21:25 57.09636 9.87652 19 ft 11 kts 312°
2026-04-25 21:26 57.09641 9.87502 19 ft 15 kts 262°
2026-04-25 21:26 57.09606 9.86934 19 ft 82 kts 263°
2026-04-25 21:26 57.09515 9.85495 29 ft 140 kts 266°
2026-04-25 21:26 57.09404 9.83650 526 ft 146 kts 265°
2026-04-25 21:27 57.09280 9.81783 1214 ft 148 kts 269°
2026-04-25 21:27 57.09153 9.79852 1729 ft 159 kts 271°
2026-04-25 21:27 57.09027 9.77741 2191 ft 172 kts 271°
2026-04-25 21:27 57.08716 9.75479 2628 ft 199 kts 248°
2026-04-25 21:28 57.07787 9.73402 3162 ft 224 kts 221°
2026-04-25 21:28 57.06341 9.72074 3780 ft 247 kts 194°
2026-04-25 21:28 57.04555 9.72130 4272 ft 271 kts 160°
2026-04-25 21:28 57.02930 9.73909 4972 ft 281 kts 139°
2026-04-25 21:29 57.01368 9.76140 5938 ft 287 kts 139°
2026-04-25 21:29 56.99756 9.78439 6903 ft 293 kts 139°
2026-04-25 21:29 56.98149 9.80717 7787 ft 300 kts 139°
2026-04-25 21:29 56.96478 9.83077 8668 ft 306 kts 139°
2026-04-25 21:30 56.94770 9.85479 9558 ft 313 kts 139°
2026-04-25 21:30 56.93018 9.87935 10321 ft 324 kts 139°
2026-04-25 21:30 56.91159 9.90548 10629 ft 348 kts 139°
2026-04-25 21:30 56.89863 9.92376 10803 ft 363 kts 139°
2026-04-25 21:31 56.87099 9.96265 11470 ft 382 kts 140°
2026-04-25 21:31 56.84963 9.99250 12109 ft 391 kts 140°
2026-04-25 21:31 56.82776 10.02296 12778 ft 400 kts 139°
2026-04-25 21:31 56.80527 10.05424 13387 ft 410 kts 139°
2026-04-25 21:32 56.78232 10.08613 13979 ft 419 kts 139°
2026-04-25 21:32 56.75888 10.11867 14541 ft 427 kts 139°
2026-04-25 21:32 56.73504 10.15167 15137 ft 433 kts 139°
2026-04-25 21:32 56.71119 10.18462 15731 ft 439 kts 139°
2026-04-25 21:33 56.68663 10.21847 16284 ft 445 kts 139°
2026-04-25 21:33 56.66183 10.25264 16853 ft 451 kts 140°
2026-04-25 21:33 56.63674 10.28711 17052 ft 454 kts 140°
2026-04-25 21:33 56.61106 10.32237 17104 ft 471 kts 140°
2026-04-25 21:34 56.58469 10.35853 17097 ft 478 kts 140°
2026-04-25 21:34 56.55807 10.39491 17097 ft 479 kts 140°
2026-04-25 21:34 56.53145 10.43122 17091 ft 480 kts 140°
2026-04-25 21:34 56.50475 10.46757 17141 ft 481 kts 140°
2026-04-25 21:35 56.47794 10.50402 17086 ft 481 kts 139°
2026-04-25 21:35 56.45116 10.54043 17081 ft 482 kts 139°
2026-04-25 21:35 56.42435 10.57685 17079 ft 482 kts 139°
2026-04-25 21:35 56.39749 10.61324 17084 ft 483 kts 140°
2026-04-25 21:36 56.37060 10.64956 17048 ft 482 kts 140°
2026-04-25 21:36 56.34405 10.68538 17078 ft 484 kts 140°
2026-04-25 21:36 56.31704 10.72176 17091 ft 484 kts 140°
2026-04-25 21:36 56.29004 10.75808 17094 ft 484 kts 140°
2026-04-25 21:37 56.26314 10.79462 17099 ft 483 kts 137°
2026-04-25 21:37 56.24673 10.82249 17095 ft 478 kts 128°
2026-04-25 21:37 56.21678 10.88036 17092 ft 478 kts 128°
2026-04-25 21:37 56.19422 10.92412 17098 ft 477 kts 128°
2026-04-25 21:38 56.17164 10.96791 17097 ft 477 kts 128°
2026-04-25 21:38 56.14907 11.01158 17081 ft 477 kts 128°
2026-04-25 21:38 56.12646 11.05513 17088 ft 477 kts 128°
2026-04-25 21:38 56.10381 11.09862 17093 ft 477 kts 128°
2026-04-25 21:39 56.08115 11.14204 17079 ft 477 kts 128°
2026-04-25 21:39 56.05843 11.18554 17056 ft 477 kts 128°
2026-04-25 21:39 56.03581 11.22884 17070 ft 477 kts 128°
2026-04-25 21:39 56.01310 11.27225 17068 ft 476 kts 128°
2026-04-25 21:40 55.99070 11.31492 16799 ft 464 kts 128°
2026-04-25 21:40 55.96869 11.35686 16106 ft 463 kts 128°
2026-04-25 21:40 55.94668 11.39876 15663 ft 457 kts 128°
2026-04-25 21:40 55.92532 11.43928 15048 ft 454 kts 128°
2026-04-25 21:41 55.90380 11.48001 14355 ft 445 kts 128°
2026-04-25 21:41 55.88281 11.51969 13513 ft 433 kts 128°
2026-04-25 21:41 55.86269 11.55756 13205 ft 412 kts 128°
2026-04-25 21:41 55.84308 11.59453 13012 ft 409 kts 128°
2026-04-25 21:42 55.82360 11.63126 13059 ft 407 kts 128°
2026-04-25 21:42 55.80419 11.66784 13051 ft 407 kts 128°
2026-04-25 21:42 55.78493 11.70394 13044 ft 394 kts 128°
2026-04-25 21:42 55.76641 11.73846 13046 ft 377 kts 128°
2026-04-25 21:43 55.74860 11.77157 13039 ft 365 kts 128°
2026-04-25 21:43 55.73112 11.80418 13011 ft 365 kts 128°
2026-04-25 21:43 55.71359 11.83705 12967 ft 368 kts 128°
2026-04-25 21:43 55.69629 11.86951 12576 ft 364 kts 128°
2026-04-25 21:44 55.67899 11.90177 11946 ft 357 kts 129°
2026-04-25 21:44 55.66204 11.93321 11388 ft 349 kts 129°
2026-04-25 21:44 55.62958 11.99330 10632 ft 321 kts 129°
2026-04-25 21:45 55.61453 12.02100 10393 ft 305 kts 129°
2026-04-25 21:45 55.60960 12.03007 10259 ft 302 kts 129°
2026-04-25 21:45 55.58595 12.07409 9509 ft 291 kts 129°
2026-04-25 21:45 55.57227 12.09973 9126 ft 281 kts 129°
2026-04-25 21:46 55.55901 12.12455 8739 ft 274 kts 129°
2026-04-25 21:46 55.54605 12.14886 8264 ft 269 kts 129°
2026-04-25 21:46 55.53328 12.17285 7794 ft 266 kts 129°
2026-04-25 21:46 55.52072 12.19646 7325 ft 262 kts 129°
2026-04-25 21:47 55.50833 12.21983 6874 ft 258 kts 129°
2026-04-25 21:47 55.49636 12.24252 6420 ft 255 kts 129°
2026-04-25 21:47 55.48437 12.26528 5913 ft 252 kts 129°
2026-04-25 21:47 55.47250 12.28781 5437 ft 250 kts 129°
2026-04-25 21:48 55.46071 12.31008 5196 ft 237 kts 129°
2026-04-25 21:48 55.45008 12.33130 4879 ft 225 kts 115°
2026-04-25 21:48 55.44590 12.35593 4398 ft 206 kts 84°
2026-04-25 21:48 55.44673 12.38042 3926 ft 192 kts 76°
2026-04-25 21:49 55.45038 12.40133 3702 ft 170 kts 42°
2026-04-25 21:49 55.46034 12.40979 3474 ft 159 kts
2026-04-25 21:49 55.47081 12.41595 3242 ft 165 kts 34°
2026-04-25 21:49 55.47865 12.43098 3032 ft 165 kts 35°
2026-04-25 21:50 55.48753 12.44352 2818 ft 163 kts 33°
2026-04-25 21:50 55.49623 12.45627 2590 ft 162 kts 33°
2026-04-25 21:50 55.50474 12.46911 2367 ft 161 kts 33°
2026-04-25 21:50 55.51036 12.47766 2214 ft 161 kts 33°
2026-04-25 21:51 55.52150 12.49475 1915 ft 151 kts 33°
2026-04-25 21:51 55.52890 12.50617 1734 ft 134 kts 32°
2026-04-25 21:51 55.53573 12.51665 1541 ft 127 kts 31°
2026-04-25 21:51 55.54011 12.52336 1419 ft 125 kts 31°
2026-04-25 21:52 55.54668 12.53343 1250 ft 124 kts 31°
2026-04-25 21:52 55.55313 12.54334 1092 ft 123 kts 31°
2026-04-25 21:52 55.55962 12.55331 916 ft 125 kts 33°
2026-04-25 21:52 55.56618 12.56339 740 ft 127 kts 33°
2026-04-25 21:53 55.57294 12.57353 540 ft 128 kts 34°
2026-04-25 21:53 55.57969 12.58391 378 ft 129 kts 36°
2026-04-25 21:53 55.58640 12.59451 218 ft 129 kts 37°
2026-04-25 21:53 55.59303 12.60510 40 ft 128 kts 32°
2026-04-25 21:54 55.59926 12.61432 18 ft 101 kts 38°
2026-04-25 21:54 55.60368 12.62121 17 ft 70 kts 42°
2026-04-25 21:54 55.60672 12.62599 20 ft 52 kts 41°
2026-04-25 21:54 55.60940 12.63014 18 ft 51 kts 41°
2026-04-25 21:55 55.61197 12.63411 22 ft 44 kts 40°
2026-04-25 21:55 55.61354 12.63646 20 ft 21 kts 35°
2026-04-25 21:55 55.61479 12.63683 19 ft 20 kts 356°
2026-04-25 21:55 55.61583 12.63670 17 ft 12 kts 356°
2026-04-25 21:56 55.61665 12.63751 17 ft 16 kts 43°
2026-04-25 21:56 55.61722 12.63847 18 ft 18 kts 43°
2026-04-25 21:56 55.61869 12.64064 17 ft 23 kts 37°
2026-04-25 21:56 55.62023 12.64199 18 ft 26 kts 25°
2026-04-25 21:57 55.62156 12.64311 17 ft 15 kts 26°
2026-04-25 21:57 55.62260 12.64388 16 ft 15 kts 15°
2026-04-25 21:57 55.62356 12.64435 17 ft 16 kts 15°
2026-04-25 21:57 55.62441 12.64476 17 ft 11 kts 14°
2026-04-25 21:58 55.62516 12.64489 17 ft 10 kts 12°
2026-04-25 21:58 55.62554 12.64508 17 ft 2 kts 15°
2026-04-25 21:58 55.62563 12.64513 17 ft 1 kts 16°
2026-04-25 21:58 55.62565 12.64514 17 ft 0 kts 16°